www.pogodaiklimat.ru

Погода и климат >> Архив погоды >> Польша >> Nowy Sacz


ПОГОДА в Nowy Sacz

  • Прогноз погоды в Nowy Sacz
  • Монитор погоды в Nowy Sacz
  • Климат города

АРХИВ ПОГОДЫ в Nowy Sacz

Время (UTC), дата Ветер
(напр.,м/с)
 
Видим.   Явления Облачность Т
(С)
Тd
(С)
f
(%)
Тe
(С)
Тes
(С)
Комфортность P
(гПа)
Po
(гПа)
Тmin
(С)
Tmax
(С)
R
(мм)
R24
(мм)
S
(см)
10 12.07 СЗ 2 30 км н/о +22.0 +13.4 58 +25 +25 комфорт 1013.8 979.8
11 12.07 Ю 1 35 км н/о +21.8 +10.6 49 +24 +24 комфорт 1013.9 979.8
12 12.07 З 2 35 км н/о +22.8 +10.9 47 +25 +25 комфорт 1013.4 979.5
13 12.07 СЗ 2 29 км н/о +23.5 +9.8 42 +25 +25 комфорт 1013.0 979.2
14 12.07 З 2 35 км н/о +24.4 +11.4 44 +26 +26 жарко 1012.6 978.9
15 12.07 ЮЗ 3 35 км н/о +24.4 +6.2 31 +24 +24 комфорт 1012.5 978.8
16 12.07 З 3
{7}
35 км н/о +24.4 +9.2 38 +25 +25 комфорт 1012.3 978.6
17 12.07 З 2 45 км н/о +22.2 +10.0 46 +24 +24 комфорт 1013.1 979.1
18 12.07 СЗ 1
{7}
40 км н/о +20.6 +12.3 59 +24 +24 комфорт 1013.9 979.7 +17.5 +24.6
19 12.07 С 2 45 км н/о +18.2 +11.3 64 +19 +19 1014.8 980.3
20 12.07 С 1 50 км н/о +18.1 +11.4 65 +19 +19 1015.0 980.5
21 12.07 Ю 1 40 км н/о +17.4 +12.7 74 +18 +18 1014.9 980.3
22 12.07 В 1 35 км н/о +16.9 +12.4 75 +18 +18 1014.6 980.0
23 12.07 Ю 1 24 км н/о +16.2 +12.7 80 +17 +17 1014.2 979.5
00 13.07 В 1 18 км слабый дождь н/о +16.1 +13.2 83 +17 +17 1014.2 979.5 0.0
01 13.07 СВ 1 9000 м ливневой дождь н/о +15.3 +13.7 90 +16 +16 1014.6 979.8
02 13.07 С 1 9000 м в посл. час дождь со снегом н/о +15.1 +13.8 92 +16 +16 1014.3 979.5
03 13.07 В 2 24 км н/о +15.0 +13.4 90 +15 +15 1014.5 979.6
04 13.07 Ю 1 15 км н/о +15.1 +13.8 92 +16 +16 1014.6 979.7
05 13.07 ЮЗ 1 12 км н/о +15.6 +14.0 90 +16 +16 1014.5 979.7
06 13.07 З 1 5000 м дождь н/о +16.4 +14.8 90 +17 +17 1014.7 980.0 +14.8 +20.6 1
07 13.07 З 4 24 км в посл. час дождь со снегом н/о +16.3 +14.0 86 +16 +16 1015.3 980.6
08 13.07 З 2 35 км н/о +17.7 +13.2 75 +18 +18 1015.5 980.9
09 13.07 З 4
{8}
30 км н/о +19.2 +13.1 68 +20 +20 1015.4 981.0
10 13.07 З 4
{11}
30 км н/о +19.7 +12.2 62 +21 +21 комфорт 1015.5 981.2
11 13.07 З 5-10
{10}
28 км н/о +21.1 +11.1 53 +23 +23 комфорт 1015.1 980.9
12 13.07 З 3-9
{11}
28 км н/о +22.5 +11.9 51 +25 +25 комфорт 1014.6 980.6 0.1
13 13.07 З 5
{11}
30 км н/о +22.7 +9.8 44 +24 +24 комфорт 1014.2 980.2
14 13.07 З 5
{10}
30 км н/о +23.3 +11.4 47 +26 +26 жарко 1014.0 980.1
15 13.07 З 4
{11}
45 км н/о +23.6 +11.0 45 +25 +25 комфорт 1013.6 979.8
16 13.07 З 4
{10}
35 км н/о +23.3 +11.4 47 +26 +26 жарко 1013.7 979.8
17 13.07 З 3 45 км н/о +22.5 +11.9 51 +25 +25 комфорт 1013.8 979.8
18 13.07 З 3
{11}
45 км н/о +21.7 +12.3 55 +24 +24 комфорт 1014.0 979.9 +16.2 +24.3 0.1
19 13.07 З 2
{9}
35 км в посл. час дождь со снегом н/о +18.0 +14.7 81 +19 +19 1015.3 980.8
20 13.07 З 1 21 км н/о +17.1 +14.4 84 +18 +18 1015.7 981.0
21 13.07 Ю 1
{9}
22 км н/о +17.0 +14.3 84 +18 +18 1015.4 980.7
22 13.07 штиль 0 30 км н/о +17.3 +13.8 80 +17 +17 1015.2 980.6
23 13.07 З 1 17 км ливневой дождь н/о +17.5 +13.8 79 +19 +19 1015.2 980.6
00 14.07 ЮЗ 2
{9}
40 км н/о +17.1 +14.0 82 +17 +17 1015.1 980.5 0.2
01 14.07 ЮЗ 2 40 км н/о +17.0 +13.7 81 +17 +17 1014.9 980.3
02 14.07 З 3 11 км дождь н/о +16.7 +14.0 84 +16 +16 1015.1 980.4
03 14.07 З 3 25 км слаб. ливневой дождь н/о +16.7 +14.0 84 +16 +16 1015.1 980.4
04 14.07 З 3 14 км ливневой дождь н/о +17.0 +13.9 82 +17 +17 1015.0 980.4
05 14.07 З 3 12 км ливневой дождь н/о +16.3 +14.7 90 +16 +16 1015.3 980.6
06 14.07 З 4
{11}
22 км в посл. час снег н/о +17.1 +14.2 83 +17 +17 1015.6 980.9 +16.2 +21.7 2
07 14.07 З 4 20 км ливневой дождь н/о +17.3 +14.2 82 +17 +17 1015.5 980.9
08 14.07 З 4
{8}
29 км ливневой дождь н/о +18.3 +14.2 77 +19 +19 1015.6 981.1
09 14.07 С 1
{8}
12 км слаб. ливневой дождь н/о +17.6 +14.9 84 +19 +19 1016.0 981.4
10 14.07 З 4 24 км ливневой дождь н/о +19.1 +15.0 77 +20 +20 1015.5 981.1
11 14.07 З 3
{11}
30 км н/о +20.8 +14.7 68 +24 +24 комфорт 1014.8 980.6
12 14.07 СЗ 2
{11}
23 км в посл. час дождь со снегом н/о +20.8 +17.0 79 +25 +25 комфорт 1014.3 980.1 2
13 14.07 СЗ 2-7
{12}
28 км слабый дождь н/о +20.0 +14.4 70 +23 +23 комфорт 1014.9 980.6
14 14.07 Ю 2 30 км в посл. час дождь со снегом н/о +20.4 +14.7 70 +24 +24 комфорт 1014.0 979.8
15 14.07 ЮЗ 3
{20}
30 км в посл. час дождь н/о +19.9 +15.3 75 +22 +22 комфорт 1013.8 979.5
16 14.07 З 2 40 км н/о +19.4 +15.1 76 +22 +22 комфорт 1013.8 979.5
17 14.07 З 3
{14}
30 км ливневой дождь н/о +18.6 +14.9 79 +20 +20 1014.5 980.1
18 14.07 З 3
{20}
40 км н/о +19.1 +13.5 70 +20 +20 1014.5 980.1 +16.9 +21.9 4
19 14.07 штиль 0 26 км н/о +18.0 +14.1 78 +18 +18 1014.8 980.3
20 14.07 Ю 1 18 км н/о +16.7 +14.3 86 +18 +18 1015.4 980.7
21 14.07 Ю 2 23 км н/о +16.3 +14.0 86 +16 +16 1015.2 980.5
22 14.07 Ю 1 23 км н/о +16.3 +14.0 86 +17 +17 1015.2 980.5
23 14.07 В 1 27 км н/о +16.5 +14.1 86 +17 +17 1015.1 980.4
00 15.07 Ю 2 29 км н/о +16.7 +13.6 82 +17 +17 1015.0 980.3
01 15.07 Ю 2 30 км н/о +16.7 +13.4 81 +17 +17 1014.9 980.2
02 15.07 З 1 26 км ливневой дождь н/о +16.1 +13.8 86 +17 +17 1014.5 979.8
03 15.07 З 3 30 км н/о +17.2 +13.5 79 +17 +17 1014.5 979.9
04 15.07 ЮЗ 1
{7}
22 км н/о +16.8 +13.5 81 +18 +18 1014.6 979.9
05 15.07 З 2 27 км н/о +17.0 +14.1 83 +17 +17 1014.6 980.0
06 15.07 З 5 30 км н/о +18.4 +13.7 74 +19 +19 1014.7 980.2 +16.0 +19.1 0.2
07 15.07 З 6
{12}
24 км н/о +19.2 +13.6 70 +20 +20 1014.3 979.9
08 15.07 З 3-8
{12}
29 км н/о +19.6 +13.1 66 +21 +21 комфорт 1014.5 980.2
09 15.07 З 6
{12}
25 км н/о +19.9 +13.8 68 +22 +22 комфорт 1014.6 980.3
10 15.07 З 5
{10}
27 км н/о +20.1 +13.8 67 +22 +22 комфорт 1014.6 980.3
11 15.07 З 4
{11}
30 км н/о +21.0 +13.7 63 +24 +24 комфорт 1013.8 979.7
12 15.07 З 5-11
{12}
13 км ливневой дождь н/о +20.8 +14.2 66 +24 +24 комфорт 1013.7 979.5 0.1
13 15.07 З 1
{8}
29 км в посл. час дождь со снегом н/о +20.3 +16.3 78 +24 +24 комфорт 1013.5 979.3
14 15.07 З 6-11
{13}
30 км н/о +22.3 +13.9 59 +25 +25 комфорт 1012.7 978.7
15 15.07 З 4
{13}
35 км в посл. час дождь н/о +22.7 +14.8 61 +26 +26 жарко 1012.4 978.5
16 15.07 З 3
{9}
50 км н/о +22.8 +13.0 54 +26 +26 жарко 1012.3 978.4
17 15.07 С 3
{9}
7000 м слабый ливневой дождь со снегом н/о +18.6 +15.5 82 +20 +20 1013.4 979.0
18 15.07 Ю 1
{13}
11 км в посл. час дождь со снегом н/о +18.0 +16.5 91 +19 +19 1013.1 978.6 +17.9 +24.0 2
19 15.07 Ю 1 12 км в посл. час снег н/о +17.5 +16.0 91 +19 +19 1013.7 979.2
20 15.07 Ю 2 9000 м ливневой дождь н/о +17.2 +16.1 93 +18 +18 1013.8 979.2
21 15.07 ЮВ 1 10 км слаб. ливневой дождь н/о +17.1 +16.1 94 +18 +18 1014.2 979.6
22 15.07 Ю 2 11 км н/о +16.5 +15.4 93 +17 +17 1014.2 979.5
23 15.07 Ю 1 17 км н/о +16.3 +15.2 93 +17 +17 1014.0 979.3
00 16.07 Ю 1 19 км н/о +16.0 +14.9 93 +17 +17 1013.8 979.1 0.7
01 16.07 ЮВ 1 22 км н/о +15.8 +14.5 92 +16 +16 1013.5 978.8
02 16.07 В 1 9000 м н/о +15.5 +14.5 94 +16 +16 1013.5 978.7
03 16.07 В 1 12 км н/о +15.3 +14.3 94 +16 +16 1013.5 978.7
04 16.07 Ю 1 7000 м ливневой дождь н/о +15.8 +14.8 94 +16 +16 1013.1 978.4
05 16.07 ЮЗ 1
{9}
13 км в посл. час снег н/о +16.3 +15.2 93 +17 +17 1013.1 978.4
06 16.07 ЮЗ 2
{9}
26 км н/о +17.7 +15.7 88 +18 +18 1012.2 977.7 +15.2 +18.0 0.7
07 16.07 З 3 45 км н/о +20.7 +14.8 69 +24 +24 комфорт 1011.4 977.3
08 16.07 З 4
{10}
35 км н/о +20.5 +14.4 68 +23 +23 комфорт 1011.4 977.3
09 16.07 З 3
{10}
35 км н/о +20.8 +14.7 68 +24 +24 комфорт 1011.6 977.5
10 16.07 З 2
{9}
30 км в посл. час снег н/о +21.0 +14.6 67 +25 +25 комфорт 1011.3 977.2
11 16.07 З 5-10
{10}
27 км н/о +23.7 +15.5 60 +27 +27 жарко 1010.1 976.4
12 16.07 З 6-11
{11}
26 км н/о +24.1 +14.5 55 +27 +27 жарко 1009.4 975.8 0.0
13 16.07 СЗ 3-10
{13}
9000 м сильный ливневой дождь н/о +18.3 +15.0 81 +19 +19 1010.7 976.4
14 16.07 СВ 1 13 км ливневой дождь н/о +18.3 +16.3 88 +20 +20 1010.7 976.4
15 16.07 С 1
{13}
3300 м ливневой дождь н/о +18.2 +16.4 89 +20 +20 1011.0 976.6
16 16.07 ЮЗ 1 10 км ливневой дождь н/о +17.7 +16.0 90 +19 +19 1010.3 975.9
17 16.07 ЮЗ 2 17 км в посл. час дождь со снегом н/о +19.0 +17.0 88 +21 +21 комфорт 1010.0 975.8
18 16.07 Ю 1
{13}
17 км н/о +18.6 +15.8 84 +21 +21 комфорт 1009.8 975.5 +17.6 +24.5 5
19 16.07 штиль 0 12 км н/о +17.5 +15.7 89 +17 +17 1009.6 975.2
20 16.07 Ю 1 7000 м дымка н/о +17.0 +15.9 93 +18 +18 1009.6 975.1
21 16.07 Ю 1 11 км дымка н/о +16.7 +15.4 92 +18 +18 1009.0 974.5
22 16.07 ЮВ 1 6000 м дымка н/о +16.5 +15.5 94 +17 +17 1008.9 974.4
23 16.07 В 1 8000 м дымка н/о +16.5 +15.5 94 +17 +17 1008.8 974.3
00 17.07 В 1 13 км н/о +16.7 +15.6 93 +18 +18 1008.4 973.9
01 17.07 Ю 1 7000 м слабый дождь н/о +16.6 +15.6 94 +17 +17 1008.0 973.5
02 17.07 ЮВ 1 5000 м сильный ливневой дождь н/о +16.7 +15.9 95 +18 +18 1007.6 973.2
03 17.07 ЮЗ 2 5000 м дымка н/о +16.8 +16.0 95 +17 +17 1007.5 973.1
04 17.07 ЮВ 1 900 м слабый ливневой дождь со снегом н/о +16.8 +16.2 96 +18 +18 1007.7 973.3
05 17.07 ЮЗ 2 3000 м слабый ливневой дождь со снегом н/о +17.2 +16.6 96 +18 +18 1007.5 973.1
06 17.07 Ю 2 7000 м в посл. час снег н/о +18.0 +17.0 94 +19 +19 1007.2 972.9 +16.4 +18.5 10
07 17.07 З 4 20 км в посл. час снег н/о +19.1 +16.3 84 +21 +21 комфорт 1006.7 972.6
08 17.07 З 5
{11}
29 км н/о +20.1 +15.7 76 +23 +23 комфорт 1006.5 972.5
09 17.07 З 4
{11}
40 км н/о +20.2 +15.2 73 +23 +23 комфорт 1006.3 972.3
10 17.07 З 4
{9}
30 км н/о +20.5 +15.3 72 +23 +23 комфорт 1006.2 972.3
11 17.07 З 5
{10}
35 км ливневой дождь н/о +20.5 +15.3 72 +23 +23 комфорт 1006.3 972.4
12 17.07 З 6
{11}
22 км ливневой дождь н/о +20.1 +14.9 72 +22 +22 комфорт 1006.1 972.1 0.0
13 17.07 З 4-10
{10}
35 км слабый дождь н/о +19.0 +15.7 81 +20 +20 1006.2 972.1
14 17.07 З 5
{9}
10 км ливневой дождь н/о +18.4 +15.5 83 +19 +19 1006.2 972.0
15 17.07 ЮЗ 2
{10}
10 км дождь н/о +17.5 +16.2 92 +18 +18 1006.3 972.0
16 17.07 ЮЗ 1 8000 м ливневой дождь н/о +17.4 +16.6 95 +18 +18 1006.3 972.0
17 17.07 ЮЗ 1 22 км ливневой дождь н/о +17.3 +16.5 95 +18 +18 1006.0 971.7
18 17.07 ЮЗ 2
{10}
6000 м слабый дождь н/о +17.2 +16.4 95 +18 +18 1005.9 971.6 +17.1 +21.2 7
19 17.07 З 3
{9}
8000 м ливневой дождь н/о +17.7 +16.6 93 +18 +18 1006.1 971.8
20 17.07 З 2 16 км в посл. час снег н/о +17.8 +16.1 90 +18 +18 1006.3 972.0
21 17.07 ЮЗ 2
{9}
23 км н/о +17.6 +16.1 91 +18 +18 1006.0 971.7
22 17.07 ЮЗ 2 3800 м морось н/о +17.1 +16.3 95 +17 +17 1005.5 971.2
23 17.07 ЮЗ 2 7000 м ливневой дождь н/о +17.0 +16.4 96 +17 +17 1005.3 971.0
00 18.07 ЮЗ 1
{9}
19 км н/о +17.0 +16.4 96 +18 +18 1005.1 970.8 0.6
01 18.07 З 4 8000 м дымка н/о +18.0 +17.0 94 +18 +18 1004.5 970.3
02 18.07 З 4 17 км в посл. час дождь со снегом н/о +18.4 +16.7 90 +19 +19 1004.5 970.4
03 18.07 З 1 26 км н/о +18.3 +16.8 91 +20 +20 1004.5 970.4
04 18.07 З 1 4300 м ливневой дождь н/о +18.0 +16.8 93 +19 +19 1004.6 970.4
05 18.07 З 1 11 км ливневой дождь н/о +18.1 +17.1 94 +19 +19 1004.9 970.7
06 18.07 З 3 7000 м ливневой дождь н/о +18.3 +17.0 92 +19 +19 1004.8 970.7 +17.0 +18.6 2
07 18.07 З 4 8000 м дождь н/о +18.3 +17.1 93 +19 +19 1004.7 970.6
08 18.07 З 3
{8}
21 км ливневой дождь н/о +18.5 +17.0 91 +19 +19 1004.8 970.7
09 18.07 З 1
{8}
35 км в посл. час морось н/о +19.9 +18.4 91 +24 +24 комфорт 1004.9 970.9
10 18.07 З 1 22 км в посл. час дождь со снегом н/о +20.3 +18.4 89 +25 +25 комфорт 1004.8 970.9
11 18.07 З 2 8000 м ливневой дождь н/о +19.1 +17.8 92 +21 +21 комфорт 1005.1 971.0
12 18.07 З 1
{8}
2300 м дождь н/о +19.3 +18.1 93 +22 +22 комфорт 1005.0 971.0 8
13 18.07 СЗ 2 22 км в посл. час дождь со снегом н/о +20.3 +19.5 95 +25 +25 комфорт 1005.1 971.2
14 18.07 З 2-7
{7}
40 км н/о +21.1 +18.3 84 +25 +25 комфорт 1005.0 971.2
15 18.07 СЗ 1
{7}
13 км сильн. ливневой дождь н/о +20.2 +19.0 93 +25 +25 комфорт 1005.6 971.6
16 18.07 СЗ 1 12 км в посл. час снег н/о +20.4 +18.9 91 +25 +25 комфорт 1005.9 972.0
17 18.07 СЗ 2 10 км ливневой дождь н/о +20.0 +18.7 92 +24 +24 комфорт 1006.4 972.4
18 18.07 СЗ 1
{7}
8000 м дымка н/о +19.8 +18.6 93 +24 +24 комфорт 1006.9 972.9 +18.0 +22.3 14
19 18.07 З 2 12 км в посл. час дождь со снегом н/о +19.8 +18.8 94 +23 +23 комфорт 1007.4 973.3
20 18.07 СЗ 2-8
{8}
3400 м ливневой дождь со снегом н/о +19.1 +17.9 93 +21 +21 комфорт 1007.9 973.7
21 18.07 СЗ 2-8
{11}
29 км сильн. дождь н/о +19.0 +18.2 95 +21 +21 комфорт 1008.2 974.0
22 18.07 С 2
{9}
5000 м слабый ливневой дождь со снегом н/о +18.6 +17.8 95 +20 +20 1008.5 974.3
23 18.07 С 1
{9}
2200 м дождь н/о +18.4 +17.9 97 +20 +20 1008.9 974.6
00 19.07 СЗ 1
{11}
5000 м слабый дождь н/о +18.2 +17.6 96 +20 +20 1009.0 974.7 30
01 19.07 З 1 7000 м ливневой дождь н/о +18.3 +17.7 96 +20 +20 1009.2 974.9
02 19.07 З 2 5000 м ливневой дождь н/о +18.1 +17.5 96 +19 +19 1009.2 974.9
03 19.07 В 1 20 км н/о +18.3 +17.5 95 +20 +20 1009.6 975.3
04 19.07 ЮЗ 1 20 км в посл. час дождь со снегом н/о +18.3 +17.3 94 +20 +20 1009.6 975.3
05 19.07 З 2 16 км н/о +18.4 +17.1 92 +20 +20 1010.1 975.8
06 19.07 З 1 35 км в посл. час дождь со снегом н/о +18.4 +17.1 92 +20 +20 1010.3 976.0 +18.0 +19.9 30
07 19.07 З 3 10 км сильный ливневой дождь н/о +18.3 +17.1 93 +19 +19 1010.6 976.3
08 19.07 З 3
{9}
6000 м дождь н/о +18.0 +16.8 93 +18 +18 1010.9 976.5

 

Местоположение метеостанции Nowy Sacz (Польша): широта 49.62 долгота 20.70 высота над уровнем моря 295 м.

В архиве по умолчанию представлена погода в Nowy Sacz за последнюю неделю. Архивные данные за месяц целиком и за предыдущие месяцы, начиная с января 2011 года, Вы можете получить, выбрав интересующий диапазон дат из раскрывающегося списка и нажав кнопку "Ввод!".


*Определитесь, кто Вы:
робот инопланетянин человек

Внимание! Время в таблицах - всемирное. Для получения местного времени необходимо прибавить поправку, которая в Nowy Sacz равна 1 ч.

Смотрите также архив погоды в соседних городах и на ближайших метеорологических станциях:

Погода в Tarnow (Польша) (50 км)
Погода в Lomnicky Stit (Словакия) (58 км)
Погода в Zakopane (Польша) (64 км)
Погода в Kasprowy Wierch (Польша) (68 км)
Погода в Poprad (Словакия) (69 км)
Погода в Poprad-Ganovce (Словакия) (71 км)
Погода в Strbske Pleso (Словакия) (71 км)
Погода в Krosno (Польша) (76 км)
Погода в Liesek (Словакия) (79 км)
Погода в Presov (Словакия) (80 км)

Пояснения к столбцам:

Ветер - указаны скорость ветра в м/с - средняя за 10 мин, порывы в срок и между сроками (в фигурных скобках) и направление, откуда дует ветер: С - северный, СВ - северо-восточный, В - восточный, ЮВ - юго-восточный, Ю - южный, ЮЗ - юго-западный, З - западный, СЗ - северо-западный.
Видимость - горизонтальная дальность видимости в метрах или километрах. При видимости от 1 до 10 км при отсутствии осадков обычно наблюдается дымка, при ухудшении видимости до 1 км и менее - туман. В сухую погоду видимость может ухудшаться дымом, пылью или мглою.
Явления - указаны атмосферные явления, наблюдавшиеся в срок или в последний час перед сроком; фигурными скобками обозначены явления, наблюдавшиеся между сроками (за 1-3 часа до срока); квадратными скобками обозначены град или гололедные отложения с указанием их диаметра в мм.
Облачность - указаны через наклонную черту общая и нижняя облачность в баллах и высота нижней границы облаков в метрах; квадратными скобками обозначены формы облаков: Ci - перистые, Cs - перисто-слоистые, Cc - перисто-кучевые, Ac - высококучевые, As - высокослоистые, Sc - слоисто-кучевые, Ns - слоисто-дождевые, Cu - кучевые, Cb - кучево-дождевые. Подробнее классификацию облаков см. в Атласе облаков (PDF).
T - Температура воздуха - температура, измеренная на высоте 2 м над землей.
Td - Температура точки росы - температура, при понижении до которой содержащийся в воздухе водяной пар достигнет насыщения.
f - Относительная влажность воздуха - влажноcть воздуха, измеренная на высоте 2 м над землей.
Te - Эффективная температура - температура, которую ощущает одетый по сезону человек в тени. Характеристика душности погоды. При расчете учитывается влияние влажности воздуха и скорости ветра на теплоощущения человека.
Tes - Эффективная температура на солнце - температура, которую ощущает человек, с поправкой на солнечный нагрев. Характеристика знойности погоды. Зависит от высоты солнца над горизонтом, облачности и скорости ветра. Ночью, в пасмурную погоду, а также при ветре 12 м/с и более поправка равна нулю.
P - Атмосферное давление - приведенное к уровню моря атмосферное давление.
Po - Атмосферное давление - измеренное на уровне метеостанции атмосферное давление.
Tmin - Минимальная температура - минимум температуры воздуха на высоте 2 м над землей.
Tmax - Максимальная температура - максимум температуры воздуха на высоте 2 м над землей.
R - Количество осадков - Количество выпавших осадков за период времени, мм. При наведении курсора мыши на число - период времени, за который выпало указанное количество осадков.
R24 - Количество осадков - Количество выпавших осадков за 24 часа, мм.
S - Снежный покров - Высота снежного покрова, см. При наведении курсора мыши на число - состояние снежного покрова и степень покрытия местности в баллах.